Location: Czu?�w
(50.1404°N, 18.9919°E)
Time: 03:28:04
(UTC+00:00)

ATLAS 2AS CENTAUR R/B - Pass Details

Date: 27 October 2020
Orbit: 939 x 1273 km, 63.7° (Epoch: 23 November)

Event Time Altitude Azimuth Distance (km) Brightness Sun altitude
Rises 19:44:40 0° 316° (NW) 4,133 6.6 -40.3°
Reaches altitude 10° 19:47:40 10° 310° (NW) 3,122 5.8 -40.7°
Enters shadow 19:52:43 36° 275° (W) 1,741 4.0 -41.4°
